Main page
Satellite images Climate Cyclones Lightning AirportsFAQ Languages Contact Newsletter About
Weather : Europe Africa North America South America Asia Australia-Oceania Others

4488, Yangon, Yangon International Airport

48097

latitude: , longitude: Myanmar, elevation: 16-46N m


METAR: VYYY 241300Z 22003KT 7000 NSC 30/21 Q1012